Dewpoint
38 40 42 43 43 44 44 45 45 45 43 42 40 39 39 41 42 44 42 44 44 41 38 37 42 40 41 38 32 33 29 31 34 29 28 27 26 27 29 30 30 29 27 23 25 22 17 35 35 32 35 39 37 34
39 41 42 42 43 44 44 45 45 45 43 42 39 39 39 41 42 43 41 43 43 43 40 40 38 38 41 42 39 35 29 30 34 32 32 32 31 31 29 26 33 28 31 28 30 29 36 38 38 40 38 35 35 39
40 40 41 42 43 43 44 44 45 45 43 42 39 39 39 41 41 41 41 43 43 43 44 43 42 43 43 42 42 33 35 37 38 41 37 35 31 33 28 30 31 34 36 32 31 37 38 38 37 35 35 37 38 36
39 40 41 42 43 43 44 44 45 44 43 41 40 39 39 41 41 41 40 43 42 41 40 42 44 41 42 41 43 43 40 38 38 40 36 35 32 37 34 34 32 33 35 33 33 36 38 36 35 36 36 34 33 34
39 40 41 42 42 43 44 44 44 44 43 41 39 38 39 41 41 41 42 42 42 40 39 40 42 41 40 41 40 39 37 36 37 34 37 35 37 35 35 35 32 35 34 31 30 36 37 36 37 38 34 32 32 32
39 40 41 42 42 43 44 44 44 44 42 41 40 38 39 41 41 41 39 44 43 45 41 38 42 39 40 41 39 38 38 38 39 38 37 38 39 36 32 32 37 37 38 37 36 38 38 38 36 30 30 31 32 33
39 39 41 42 42 43 44 44 44 43 41 41 40 38 40 41 38 35 38 42 44 45 40 39 37 38 40 40 40 39 39 39 39 38 38 38 37 39 37 31 38 39 38 38 39 39 37 35 29 30 33 34 36 35
39 40 41 42 42 43 43 44 43 41 41 41 39 39 41 40 39 37 40 41 42 43 43 40 37 35 40 37 35 40 37 39 38 38 38 37 39 40 35 37 39 38 38 38 39 38 37 31 29 31 34 34 34 33
39 40 41 42 42 43 43 43 42 41 41 40 39 40 38 38 35 37 46 45 44 44 38 41 34 32 39 37 37 37 37 33 38 36 37 35 35 34 37 38 38 39 39 39 39 39 31 29 32 34 33 34 33 32
39 41 41 42 42 42 43 43 41 41 41 40 37 34 26 36 43 44 44 42 42 43 42 38 40 35 37 37 34 34 36 35 31 35 38 36 36 38 38 39 40 40 40 39 37 30 31 33 34 33 32 32 31 31
40 41 41 42 42 42 43 43 41 41 39 34 30 29 35 41 42 42 34 36 37 37 40 41 38 35 39 33 33 35 32 35 31 35 34 33 31 37 40 40 40 40 40 39 37 33 34 34 33 32 31 32 32 31
40 41 42 41 41 43 42 41 41 37 34 35 34 37 37 37 37 35 33 37 37 34 38 36 36 36 38 37 32 34 32 34 29 37 32 29 35 39 40 40 40 41 40 34 34 35 35 33 33 33 33 33 33 34
41 41 41 41 42 42 41 41 41 39 41 36 33 31 31 32 29 31 27 34 31 36 37 36 35 37 37 38 34 33 31 28 37 31 30 33 37 39 39 41 41 40 35 34 35 36 35 33 33 33 33 33 34 35
41 41 42 42 42 41 41 41 40 38 34 25 25 21 27 27 31 31 32 34 36 35 36 36 37 35 36 36 34 30 32 36 30 26 30 36 39 40 41 41 41 36 34 35 36 34 32 33 34 34 33 34 34 34
41 42 43 42 41 41 41 41 40 36 32 27 28 22 26 30 33 34 36 37 37 39 37 36 35 35 35 32 35 33 32 28 31 29 33 38 40 40 41 41 39 35 35 36 35 32 32 33 32 30 31 33 33 33
40 40 39 41 41 41 41 40 37 35 31 28 27 26 28 29 30 32 35 37 40 39 36 35 32 30 30 31 31 29 29 27 28 34 39 40 40 40 41 41 37 35 36 36 33 32 32 31 29 29 32 34 34 34
39 35 40 39 40 40 39 37 35 30 27 27 26 30 29 27 27 31 37 36 40 39 32 34 28 26 31 28 29 32 29 29 35 40 40 40 39 40 41 39 36 36 37 34 32 31 31 31 31 31 31 33 34 33
32 36 39 40 38 37 35 34 29 28 23 25 25 26 31 34 33 33 34 36 36 38 34 31 32 28 26 25 27 29 36 41 41 40 41 40 40 41 41 37 36 37 36 33 31 32 32 30 30 30 32 32 32 32
37 37 39 39 37 33 27 28 32 26 23 26 29 29 31 32 32 32 32 33 35 37 37 30 28 28 28 31 29 36 41 41 40 41 41 40 41 41 40 37 36 37 36 32 32 31 30 30 30 31 31 31 30 32
40 40 39 38 37 30 29 29 33 28 24 28 33 31 32 31 30 32 31 33 33 37 34 28 27 31 32 32 40 43 42 42 42 40 40 40 41 41 39 37 36 37 35 32 32 32 32 32 31 31 31 31 30 31
38 38 38 36 32 32 32 30 28 29 28 25 32 33 33 34 33 33 33 34 34 37 34 31 32 36 37 39 43 44 43 43 41 41 40 40 41 41 39 38 38 37 34 31 32 32 31 30 30 31 31 31 32 32
35 37 32 34 30 29 28 30 29 33 31 33 34 34 31 32 35 36 37 37 37 37 34 35 37 35 35 43 44 44 43 43 43 41 38 39 40 39 38 37 38 36 33 32 32 32 32 31 31 31 31 33 31 33
37 34 34 31 26 26 23 32 30 31 26 32 35 32 33 36 37 39 38 38 37 37 38 38 37 36 37 44 44 44 44 43 42 41 41 41 40 38 38 38 38 36 34 32 32 32 32 30 30 32 33 32 32 32
36 28 25 25 23 14 27 28 32 27 25 25 31 32 35 35 37 35 31 33 35 39 38 37 37 40 43 44 43 43 43 43 42 41 41 39 38 37 38 38 38 37 35 33 32 33 32 31 30 33 33 30 31 31
18 18 25 21 26 23 21 25 25 26 28 32 33 32 34 36 32 30 30 32 37 38 37 37 38 42 43 43 43 43 43 43 41 41 40 39 38 38 39 38 37 35 34 33 33 33 32 32 33 33 31 30 29 30
11 10 20 21 21 25 24 22 21 24 31 32 32 37 35 30 27 25 30 36 37 38 38 37 37 39 42 43 43 42 42 43 41 40 39 39 38 39 38 38 35 34 34 33 34 32 31 32 32 32 30 29 27 29
12 11 23 28 29 29 29 31 32 32 30 31 33 33 29 21 22 28 35 39 37 38 38 39 39 39 42 43 44 43 42 41 41 40 40 40 41 40 39 38 36 35 35 35 35 32 31 32 32 31 30 30 30 30
21 23 14 21 22 21 25 28 31 28 30 34 35 27 24 24 25 33 40 42 41 40 41 42 41 41 43 44 44 42 42 42 41 42 43 43 42 42 41 41 39 34 37 38 35 33 32 32 32 32 31 31 31 29
25 27 27 24 26 30 29 28 32 33 35 37 32 29 29 36 38 38 39 40 42 41 41 41 42 44 44 43 43 43 42 41 40 39 38 39 39 40 41 40 37 39 40 37 32 33 34 33 32 32 31 31 30 30
24 25 21 21 21 26 29 34 33 33 34 35 37 35 35 35 36 37 37 40 41 41 38 41 42 43 41 41 40 41 42 42 42 40 39 39 40 40 40 39 39 40 39 36 34 33 32 32 32 32 30 30 30 31
30 27 25 23 23 29 30 31 32 33 33 32 33 33 34 34 35 36 38 38 38 34 36 36 35 37 40 40 40 40 40 37 38 42 42 40 37 38 36 38 39 38 37 35 34 33 33 33 33 31 31 30 30 31
28 28 29 27 29 31 32 32 32 32 32 31 30 31 32 33 31 33 35 35 34 35 34 38 38 38 35 38 35 35 37 39 39 41 40 39 39 37 38 39 37 36 36 35 35 34 33 33 32 32 31 30 29 29
32 31 31 29 28 28 30 31 31 30 31 31 30 30 31 29 29 31 35 34 35 36 37 36 35 35 35 37 38 37 39 40 37 37 36 36 36 38 38 37 36 36 35 35 34 34 32 31 32 31 30 30 29 28
Lifted_Index
7 7 7 7 7 7 7 7 7 8 9 10 11 12 12 11 11 10 9 7 7 5 4 4 5 4 4 4 4 5 5 6 6 5 4 4 3 4 3 3 3 3 3 3 3 2 2 3 3 3 2 2 2 2
7 7 7 7 7 7 7 7 7 8 9 10 11 12 12 11 11 11 9 8 7 6 5 4 5 4 4 4 4 5 6 6 6 5 4 3 3 3 3 3 3 3 3 3 3 3 3 3 3 3 3 3 3 3
7 7 7 7 7 7 7 7 7 8 9 10 11 12 12 12 11 11 10 8 6 5 4 4 4 4 4 4 4 5 5 5 5 4 3 3 3 3 3 3 3 4 4 4 4 4 4 3 3 3 3 3 3 3
7 7 7 7 7 7 7 7 7 8 9 10 11 12 12 12 12 11 10 8 7 5 4 4 4 4 4 4 4 5 4 5 4 4 3 3 3 3 3 3 3 4 4 4 4 4 4 3 3 3 3 3 3 2
7 7 7 7 7 7 7 7 7 8 9 10 11 12 12 12 12 11 10 8 7 5 4 4 4 4 4 4 5 5 5 5 4 4 3 3 3 3 3 3 4 4 5 5 5 4 4 3 3 3 2 2 2 2
7 7 7 7 7 7 7 7 7 8 9 10 11 12 12 12 12 11 8 7 7 6 4 4 4 4 4 5 5 5 5 5 4 4 3 3 3 3 3 4 4 5 5 5 5 5 4 4 3 3 2 2 2 2
6 6 7 7 7 7 7 7 7 8 9 10 11 11 12 12 13 11 8 7 7 6 4 3 4 4 5 5 5 5 5 5 4 3 3 3 4 3 3 4 4 5 5 5 5 5 4 3 3 2 2 2 3 3
5 6 6 6 6 6 6 7 7 8 9 10 10 11 12 12 12 11 9 7 7 6 4 3 4 4 5 5 5 5 5 5 4 4 3 4 4 3 3 4 5 5 6 5 5 4 4 3 2 2 2 3 4 4
4 4 5 5 5 5 6 6 7 8 9 10 10 11 11 12 11 10 8 7 6 5 4 3 4 4 4 5 5 5 5 5 4 4 3 4 4 3 3 4 5 6 6 5 5 4 3 3 2 2 3 4 5 5
4 4 4 4 4 4 4 5 6 8 9 10 10 11 11 10 9 8 7 6 5 5 4 3 3 4 4 4 5 5 5 5 4 4 3 3 3 3 4 5 6 6 6 5 4 3 3 2 2 3 4 5 6 6
3 3 2 2 2 2 3 4 5 7 8 10 10 10 10 9 7 6 6 5 5 5 4 3 3 3 4 4 5 5 5 4 4 3 3 3 3 4 4 5 6 6 6 5 4 3 3 2 3 4 5 6 6 7
2 2 1 1 1 1 1 2 4 5 7 8 9 9 9 7 6 6 5 5 5 4 4 3 3 3 4 4 4 4 4 4 4 3 3 4 4 4 5 6 6 6 6 5 4 3 3 3 4 6 6 7 7 7
1 1 1 0 0 0 1 1 3 4 5 7 9 9 8 6 6 5 5 5 5 4 3 3 3 3 4 4 4 4 4 4 4 4 4 4 4 5 6 6 7 6 6 5 5 4 4 5 6 7 7 7 7 7
0 0 0 0 0 1 1 1 2 3 5 7 8 8 7 6 6 6 5 4 4 3 3 2 2 3 3 4 4 4 4 4 4 4 4 4 4 5 6 7 7 6 6 5 5 5 5 6 7 7 7 7 7 7
0 0 0 1 1 1 1 2 3 4 5 6 7 7 7 6 6 5 5 4 3 2 2 2 2 2 3 3 4 4 4 4 4 4 4 4 5 5 6 7 7 6 6 6 5 6 6 7 8 8 8 8 8 7
1 1 1 1 1 2 2 3 4 5 5 6 7 8 8 6 5 5 4 3 2 1 1 1 2 3 3 4 4 5 5 4 4 5 5 5 5 5 6 7 7 7 6 6 6 7 8 8 8 8 8 8 8 8
2 2 2 2 2 2 3 3 4 5 6 7 8 8 8 6 5 4 3 2 2 1 1 2 2 3 4 5 5 5 5 5 5 5 5 5 5 6 6 7 7 7 7 7 8 9 9 9 8 8 8 8 8 8
2 2 2 2 2 3 3 4 5 6 6 7 8 8 8 7 5 4 3 2 1 1 1 2 3 4 4 5 6 6 5 4 5 5 5 5 5 6 6 7 7 7 8 8 9 10 10 9 8 8 8 8 8 8
1 1 1 2 2 3 3 4 5 6 7 7 7 7 7 7 7 5 3 2 1 1 1 2 3 4 5 5 5 5 4 4 4 4 5 5 5 6 6 7 7 8 8 9 10 11 11 10 9 9 8 8 8 8
1 1 1 2 2 3 4 5 6 6 6 6 6 6 7 7 7 5 3 2 1 1 2 3 4 4 5 5 4 4 3 4 4 4 4 5 5 6 6 7 8 8 9 10 11 12 12 11 10 9 9 9 9 9
1 1 2 2 3 4 5 5 6 6 6 6 6 6 6 6 5 3 2 1 1 1 2 4 4 5 4 4 3 3 3 4 4 4 4 5 5 6 7 7 8 8 9 10 11 12 12 11 10 10 9 9 9 9
2 2 2 3 4 4 5 6 6 5 5 5 5 5 5 5 4 3 2 1 1 2 3 4 5 5 4 3 3 3 3 4 4 4 5 5 5 6 7 7 8 9 9 10 12 12 12 11 11 10 10 9 9 9
2 2 3 4 4 5 6 6 5 5 5 5 4 4 4 4 3 2 2 2 2 2 3 4 4 5 4 3 3 3 4 4 4 5 5 5 5 6 7 7 8 9 9 11 12 12 12 12 12 11 10 10 9 9
2 2 3 4 5 6 6 6 6 6 6 5 4 4 3 2 2 2 2 2 2 2 3 4 4 5 4 3 3 3 4 4 4 5 5 5 6 6 7 8 8 9 10 11 12 12 12 12 12 11 10 10 9 9
2 3 4 4 5 6 6 6 6 6 5 4 3 3 2 2 2 2 3 3 3 3 3 4 5 5 4 4 3 3 4 4 4 5 5 5 6 6 7 8 8 9 10 10 11 12 12 12 12 11 10 10 9 9
3 4 5 5 5 5 5 5 5 5 4 3 2 2 2 2 2 3 3 4 3 3 3 4 5 5 5 4 4 4 4 4 4 5 5 6 6 6 7 8 8 9 9 10 11 12 12 12 11 11 10 10 10 9
5 5 6 5 4 4 4 4 4 4 4 3 2 1 2 2 3 3 3 3 3 3 4 4 5 5 5 4 4 4 4 4 5 5 5 6 6 6 7 7 8 8 9 9 10 11 12 12 11 11 10 10 10 10
6 6 6 5 4 4 4 4 4 3 3 3 3 2 2 2 3 3 3 3 3 4 4 5 6 6 5 5 4 4 5 5 5 5 6 6 6 7 7 8 8 8 8 9 9 10 11 11 11 11 11 10 10 10
5 5 5 5 5 4 4 4 4 3 3 3 3 3 3 3 3 3 3 3 3 4 5 6 6 6 6 5 5 5 5 5 5 6 6 6 6 7 7 7 8 8 8 8 9 10 10 11 11 11 11 11 11 11
5 5 6 5 4 4 4 4 4 3 3 3 3 3 3 3 3 3 3 3 3 4 5 6 6 6 5 5 5 5 5 5 5 6 6 6 6 7 7 7 7 8 8 8 9 9 10 10 11 11 11 11 11 11
4 5 5 5 4 4 4 4 4 4 4 3 3 3 3 3 4 4 3 3 3 4 5 5 6 5 5 5 5 5 5 5 5 6 6 6 7 7 7 7 7 7 8 8 9 9 9 10 10 10 10 10 10 10
4 4 4 3 3 3 3 4 4 4 3 3 3 3 3 4 4 4 4 4 4 4 5 5 5 5 5 5 5 5 5 5 5 6 6 6 7 7 7 7 7 7 8 8 9 9 9 9 9 9 9 9 10 10
3 3 3 2 2 3 3 4 4 3 3 3 3 3 4 4 4 4 4 4 4 4 5 5 5 5 5 5 4 4 5 5 6 6 6 6 6 6 7 7 7 7 8 8 8 9 9 9 9 9 9 9 9 9